Location: Brodeslavy
(49.9527°N, 13.5567°E)
Time: 04:59:55
(UTC+00:00)

Meteor 1-16 Rocket - Pass Details

Date: 17 June 2025
Orbit: 790 x 904 km, 81.2° (Epoch: 12 July)

Event Time Altitude Azimuth Distance (km) Brightness Sun altitude
Rises 21:00:38 0° 346° (NNW) 3,475 9.1 -11.5°
Reaches altitude 10° 21:03:04 10° 345° (NNW) 2,548 8.1 -11.7°
Maximum altitude 21:08:53 78° 261° (W) 920 4.4 -12.1°
Enters shadow 21:13:59 14° 177° (S) 2,282 5.9 -12.5°
